Location: Newark
(25.1987°N, 100.3705°W)
Time: 05:17:29
(UTC+00:00)

LightSail 2 - Pass Details

Date: 16 April 2020
Orbit: 695 x 719 km, 24.0° (Epoch: 28 May)

Event Time Altitude Azimuth Distance (km) Brightness Sun altitude
Exits shadow 10:21:49 48° 155° (SSE) 916 5.6 -25.6°
Drops below altitude 10° 10:25:53 10° 116° (ESE) 2,151 8.1 -24.8°
Sets 10:28:20 0° 112° (ESE) 3,064 9.0 -24.3°
